�N����,����,�~����,�C��,���x,�C��,����,���ϕ���,�ő�u�ԕ���,�ő厞����,���˗�,�I�_���x,�n�����x,�ő啗���N��,DTYPE
"17/08/17","00:10",0.0,24.0,92.1,1000.3,277.5,0.7,1.2,276.1,0.00,22.7,26.3,"00:08:24",1
"17/08/17","00:20",0.0,23.9,92.1,1000.5,307.8,0.8,1.7,311.3,0.00,22.6,26.3,"00:19:44",1
"17/08/17","00:30",0.0,23.9,92.1,1000.3,303.6,1.0,1.7,288.9,0.00,22.6,26.3,"00:20:08",1
"17/08/17","00:40",0.0,23.8,92.3,1001.0,292.7,0.7,1.1,303.6,0.00,22.5,26.1,"00:30:16",1
"17/08/17","00:50",0.0,23.7,92.6,1000.8,300.3,0.8,1.3,324.7,0.00,22.5,26.1,"00:46:24",1
"17/08/17","01:00",0.0,23.7,92.8,1000.8,327.8,1.0,1.6,323.3,0.00,22.5,26.1,"00:51:04",1
"17/08/17","01:10",0.0,23.7,92.8,1000.8,332.0,1.2,1.9,341.4,0.00,22.5,26.1,"01:08:00",1
"17/08/17","01:20",0.0,23.6,92.9,1000.8,331.8,1.7,2.6,334.5,0.00,22.4,26.2,"01:11:12",1
"17/08/17","01:30",0.0,23.7,93.1,1000.8,319.5,1.5,2.7,324.7,0.00,22.6,26.0,"01:25:20",1
"17/08/17","01:40",0.0,23.8,93.1,1001.0,328.0,1.3,2.1,320.4,0.00,22.7,26.0,"01:31:12",1
"17/08/17","01:50",0.0,23.9,93.1,1000.8,326.8,0.8,1.8,341.5,0.00,22.8,26.1,"01:46:32",1
"17/08/17","02:00",0.0,23.9,92.8,1001.0,332.6,0.8,1.6,343.3,0.00,22.7,25.8,"01:56:32",1
"17/08/17","02:10",0.0,24.0,92.6,1001.0,339.0,1.0,1.8,331.3,0.00,22.8,26.0,"02:04:08",1
"17/08/17","02:20",0.0,24.0,92.5,1001.2,339.6,1.0,1.7,341.7,0.00,22.7,26.0,"02:14:48",1
"17/08/17","02:30",0.0,24.0,92.3,1001.2,326.0,1.0,1.6,336.3,0.00,22.7,25.8,"02:20:48",1
"17/08/17","02:40",0.0,23.9,92.3,1001.2,326.8,1.1,2.2,337.4,0.00,22.6,25.7,"02:31:44",1
"17/08/17","02:50",0.0,23.8,92.3,1001.2,322.5,1.1,1.7,339.1,0.00,22.5,25.8,"02:41:28",1
"17/08/17","03:00",0.0,23.6,92.4,1001.5,310.8,1.0,1.3,322.0,0.00,22.3,25.7,"02:55:52",1
"17/08/17","03:10",0.0,23.5,92.7,1001.2,319.9,1.5,2.6,330.2,0.00,22.3,25.7,"03:05:44",1
"17/08/17","03:20",0.0,23.5,92.8,1001.2,293.3,0.7,2.2,331.9,0.00,22.3,25.7,"03:10:16",1
"17/08/17","03:30",0.0,23.5,92.9,1001.2,293.1,1.1,2.1,338.5,0.00,22.3,25.7,"03:27:36",1
"17/08/17","03:40",0.0,23.6,93.1,1001.2,307.8,0.8,1.4,310.7,0.00,22.5,25.7,"03:36:08",1
"17/08/17","03:50",0.0,23.7,93.2,1001.2,336.0,1.0,1.8,334.4,0.00,22.6,25.6,"03:47:44",1
"17/08/17","04:00",0.0,23.6,93.2,1001.2,307.5,1.1,2.0,320.4,0.00,22.5,25.6,"03:59:52",1
"17/08/17","04:10",0.0,23.7,93.2,1001.2,303.9,1.0,2.1,335.1,0.00,22.6,25.7,"04:04:40",1
"17/08/17","04:20",0.0,23.7,93.0,1001.2,305.0,0.8,2.0,322.4,0.00,22.5,25.7,"04:18:08",1
"17/08/17","04:30",0.0,23.7,93.0,1001.2,293.7,0.6,1.0,312.8,0.00,22.5,25.5,"04:21:04",1
"17/08/17","04:40",0.0,23.7,93.1,1001.2,314.7,0.8,1.2,333.9,0.00,22.6,25.6,"04:34:00",1
"17/08/17","04:50",0.0,23.8,93.2,1001.5,297.3,0.7,1.1,317.3,0.00,22.7,25.5,"04:43:28",1
"17/08/17","05:00",0.0,23.7,93.2,1001.5,300.9,0.8,1.0,318.4,0.00,22.6,25.7,"04:54:56",1
"17/08/17","05:10",0.0,23.4,93.5,1001.5,315.7,1.1,1.4,325.4,0.00,22.3,25.5,"05:04:08",1
"17/08/17","05:20",0.0,23.3,93.6,1001.5,313.4,1.1,2.0,332.7,0.00,22.2,25.4,"05:16:32",1
"17/08/17","05:30",0.0,23.3,93.7,1001.9,282.6,1.0,1.2,266.6,0.00,22.3,25.5,"05:23:52",1
"17/08/17","05:40",0.0,23.3,93.9,1001.9,323.9,1.5,2.5,335.2,0.00,22.3,25.6,"05:37:44",1
"17/08/17","05:50",0.0,23.4,93.8,1001.9,332.3,1.0,1.4,335.2,0.00,22.4,25.4,"05:48:08",1
"17/08/17","06:00",0.0,23.5,93.9,1001.9,311.9,1.0,1.4,330.1,0.00,22.5,25.4,"05:54:16",1
"17/08/17","06:10",0.0,23.6,94.0,1001.9,285.9,0.8,1.3,300.2,0.00,22.6,25.5,"06:02:40",1
"17/08/17","06:20",0.0,24.0,93.5,1001.7,293.8,0.7,1.2,255.0,0.00,22.9,25.2,"06:19:44",1
"17/08/17","06:30",0.0,24.3,93.0,1001.9,310.4,0.6,1.3,246.6,0.01,23.1,25.4,"06:20:56",1
"17/08/17","06:40",0.0,24.9,92.3,1002.2,336.6,0.5,1.1,329.4,0.02,23.6,25.5,"06:31:44",1
"17/08/17","06:50",0.0,25.3,90.5,1002.2,337.1,0.7,1.4,347.4,0.05,23.7,25.3,"06:44:56",1
"17/08/17","07:00",0.0,26.3,85.8,1002.4,349.3,0.3,0.8,5.2,0.08,23.8,25.5,"06:53:44",1
"17/08/17","07:10",0.0,27.1,83.0,1002.2,296.8,0.0,0.4,359.5,0.06,24.0,25.5,"07:00:16",1
"17/08/17","07:20",0.0,27.0,83.0,1001.7,196.0,0.0,0.3,216.5,0.04,23.9,25.7,"07:10:32",1
"17/08/17","07:30",0.0,26.9,83.5,1002.2,263.1,0.0,0.3,175.6,0.05,23.9,25.6,"07:21:44",1
"17/08/17","07:40",0.0,26.9,83.4,1002.2,14.5,0.2,0.8,327.1,0.06,23.9,25.7,"07:38:16",1
"17/08/17","07:50",0.0,26.7,83.8,1002.2,327.1,0.3,0.6,340.0,0.08,23.8,25.6,"07:40:32",1
"17/08/17","08:00",0.0,26.8,83.7,1002.2,287.8,0.1,0.5,227.4,0.08,23.8,25.8,"07:56:00",1
"17/08/17","08:10",0.0,26.9,83.3,1001.7,345.3,0.5,1.4,344.4,0.08,23.9,25.8,"08:09:52",1
"17/08/17","08:20",0.0,27.1,83.5,1002.2,0.2,0.7,1.3,357.5,0.08,24.1,25.9,"08:12:48",1
"17/08/17","08:30",0.0,27.3,82.5,1002.2,346.9,0.6,1.1,351.4,0.11,24.1,26.0,"08:26:08",1
"17/08/17","08:40",0.0,27.6,80.4,1001.9,334.0,0.5,1.3,335.7,0.14,24.0,26.0,"08:30:16",1
"17/08/17","08:50",0.0,29.2,78.2,1001.7,207.4,0.5,1.4,225.5,0.31,25.0,26.3,"08:40:24",1
"17/08/17","09:00",0.0,29.8,73.9,1002.4,34.3,0.6,2.1,346.0,0.36,24.7,26.2,"08:58:00",1
"17/08/17","09:10",0.0,29.0,74.8,1002.6,114.7,0.7,1.4,112.0,0.19,24.1,26.4,"09:02:00",1
"17/08/17","09:20",0.0,29.0,74.7,1002.6,128.8,0.5,1.4,123.3,0.16,24.1,26.3,"09:13:28",1
"17/08/17","09:30",0.0,28.9,75.9,1002.6,315.9,0.5,1.2,226.3,0.16,24.3,26.7,"09:25:44",1
"17/08/17","09:40",0.0,29.2,73.2,1002.4,43.7,0.5,1.3,63.9,0.20,23.9,26.9,"09:34:16",1
"17/08/17","09:50",0.0,29.6,74.7,1002.6,350.6,0.3,1.3,340.2,0.19,24.7,26.8,"09:44:00",1
"17/08/17","10:00",0.0,29.8,74.0,1002.2,58.3,0.5,1.4,113.4,0.17,24.7,26.9,"09:58:56",1
"17/08/17","10:10",0.0,29.8,72.6,1002.4,49.0,0.8,1.7,1.9,0.21,24.4,27.0,"10:08:16",1
"17/08/17","10:20",0.0,30.2,71.9,1002.6,28.7,0.6,1.7,353.9,0.23,24.6,27.1,"10:15:20",1
"17/08/17","10:30",0.0,30.3,69.7,1002.9,59.4,0.7,1.6,1.9,0.25,24.2,27.2,"10:29:12",1
"17/08/17","10:40",0.0,31.0,69.6,1002.9,19.8,0.7,1.6,354.6,0.40,24.8,27.3,"10:34:32",1
"17/08/17","10:50",0.0,31.3,66.6,1003.4,110.6,0.6,1.7,129.0,0.37,24.4,27.6,"10:41:52",1
"17/08/17","11:00",0.0,30.8,68.9,1003.1,124.5,0.8,1.7,118.7,0.24,24.5,27.7,"10:54:08",1
"17/08/17","11:10",0.0,30.7,71.1,1003.4,244.0,0.6,1.6,216.6,0.24,24.9,27.7,"11:02:24",1
"17/08/17","11:20",0.0,31.6,65.2,1003.4,9.3,1.1,2.7,322.5,0.49,24.3,27.8,"11:13:04",1
"17/08/17","11:30",0.0,31.4,67.7,1003.4,102.8,1.1,3.2,139.6,0.38,24.7,27.9,"11:27:36",1
"17/08/17","11:40",0.0,31.7,65.9,1002.9,201.3,1.2,3.2,216.8,0.42,24.6,28.0,"11:30:40",1
"17/08/17","11:50",0.0,31.5,67.5,1003.1,180.5,1.5,3.1,223.6,0.34,24.8,28.3,"11:49:52",1
"17/08/17","12:00",0.0,30.7,70.5,1002.9,180.1,1.3,3.3,219.4,0.19,24.8,28.5,"11:50:40",1
"17/08/17","12:10",0.0,31.2,70.0,1002.2,158.4,1.0,3.5,137.5,0.21,25.1,28.7,"12:01:04",1
"17/08/17","12:20",0.0,30.9,68.9,1002.9,192.6,1.3,2.9,217.5,0.20,24.6,28.6,"12:19:36",1
"17/08/17","12:30",0.0,30.8,69.8,1002.4,201.2,2.0,3.4,229.4,0.26,24.7,28.4,"12:29:12",1
"17/08/17","12:40",0.0,31.4,67.9,1002.2,222.3,1.0,2.7,219.9,0.32,24.8,28.7,"12:35:36",1
"17/08/17","12:50",0.0,31.6,67.8,1002.4,310.6,0.7,1.8,234.9,0.33,25.0,28.7,"12:41:44",1
"17/08/17","13:00",0.0,31.3,69.4,1002.2,218.1,0.7,1.6,148.9,0.19,25.1,28.9,"12:55:52",1
"17/08/17","13:10",0.0,32.5,69.6,1002.2,211.5,0.6,1.9,223.3,0.32,26.3,29.0,"13:01:04",1
"17/08/17","13:20",0.0,32.0,68.4,1002.2,197.5,0.8,2.4,223.8,0.21,25.5,28.9,"13:12:24",1
"17/08/17","13:30",0.0,32.6,65.8,1002.4,229.4,0.7,2.9,213.4,0.36,25.4,28.9,"13:22:00",1
"17/08/17","13:40",0.0,33.8,63.6,1002.4,337.6,0.8,1.9,348.8,0.53,26.0,29.2,"13:34:00",1
"17/08/17","13:50",0.0,33.6,62.3,1002.4,2.7,1.1,2.8,352.7,0.45,25.4,29.5,"13:43:36",1
"17/08/17","14:00",0.0,32.3,66.0,1002.9,154.9,1.0,3.7,200.3,0.26,25.2,29.4,"13:59:20",1
"17/08/17","14:10",0.0,31.5,68.2,1002.4,147.3,1.0,2.7,228.4,0.12,25.0,29.4,"14:00:48",1
"17/08/17","14:20",0.0,32.6,65.4,1001.9,193.7,0.5,1.3,347.8,0.25,25.3,29.4,"14:16:48",1
"17/08/17","14:30",0.0,34.7,59.3,1002.4,111.8,0.5,1.6,127.7,0.53,25.6,29.5,"14:27:04",1
"17/08/17","14:40",0.0,33.8,58.9,1002.4,214.7,1.1,3.1,334.0,0.42,24.7,29.7,"14:39:20",1
"17/08/17","14:50",0.0,33.3,63.7,1002.2,188.9,0.8,2.6,215.7,0.21,25.5,29.5,"14:49:44",1
"17/08/17","15:00",0.0,32.7,63.9,1001.9,128.0,0.8,2.4,122.8,0.16,25.0,29.7,"14:59:44",1
"17/08/17","15:10",0.0,32.0,65.3,1001.5,201.8,1.2,3.3,222.0,0.08,24.7,29.7,"15:02:08",1
"17/08/17","15:20",0.0,32.3,64.4,1001.0,191.0,1.2,3.1,224.0,0.12,24.8,29.6,"15:10:24",1
"17/08/17","15:30",0.0,33.5,62.9,1001.2,219.3,0.8,2.6,195.5,0.26,25.5,29.7,"15:24:08",1
"17/08/17","15:40",0.0,33.2,64.2,1001.2,258.6,0.6,1.6,356.7,0.14,25.6,29.7,"15:32:24",1
"17/08/17","15:50",0.0,33.3,65.0,1001.2,200.9,0.3,1.3,231.1,0.14,25.9,29.7,"15:48:48",1
"17/08/17","16:00",0.0,32.5,65.4,1001.2,191.7,1.2,3.1,203.6,0.09,25.2,29.8,"15:52:24",1
"17/08/17","16:10",0.0,32.3,64.9,1001.0,199.4,1.0,2.4,216.1,0.08,24.9,29.8,"16:08:08",1
"17/08/17","16:20",0.0,32.4,62.8,1000.8,195.6,1.6,3.1,232.6,0.08,24.4,29.6,"16:10:48",1
"17/08/17","16:30",0.0,33.2,65.6,1000.5,159.4,0.2,0.8,185.3,0.11,25.9,29.6,"16:20:08",1
"17/08/17","16:40",0.0,33.4,59.6,1001.0,159.9,0.5,0.9,224.2,0.10,24.5,29.6,"16:31:20",1
"17/08/17","16:50",0.0,33.1,64.3,1000.8,107.3,0.6,1.7,56.6,0.08,25.5,29.4,"16:46:16",1
"17/08/17","17:00",0.0,32.4,66.6,1001.2,126.3,0.5,1.3,120.3,0.05,25.4,29.4,"16:56:56",1
"17/08/17","17:10",0.0,32.1,67.1,1000.8,90.4,0.8,2.1,107.4,0.07,25.3,29.4,"17:07:52",1
"17/08/17","17:20",0.0,32.5,67.4,1000.5,91.0,0.7,1.6,31.0,0.11,25.7,29.4,"17:17:20",1
"17/08/17","17:30",0.0,32.8,66.0,1001.0,37.4,0.7,1.7,359.5,0.11,25.6,29.5,"17:21:20",1
"17/08/17","17:40",0.0,33.0,64.9,1001.0,39.2,0.8,1.8,72.1,0.11,25.6,29.3,"17:39:52",1
"17/08/17","17:50",0.0,32.8,64.8,1001.0,68.5,1.0,1.9,56.0,0.07,25.3,29.3,"17:46:24",1
"17/08/17","18:00",0.0,32.4,66.5,1000.8,46.4,0.5,1.8,59.9,0.04,25.4,29.2,"17:53:52",1
"17/08/17","18:10",0.0,32.2,68.5,1000.5,27.0,0.3,1.7,16.1,0.03,25.7,29.3,"18:02:24",1
"17/08/17","18:20",0.0,31.4,69.7,1000.5,239.7,0.7,1.8,231.7,0.01,25.2,29.1,"18:17:44",1
"17/08/17","18:30",0.0,30.8,71.7,1000.0,173.2,0.5,1.7,194.6,0.00,25.1,29.2,"18:23:04",1
"17/08/17","18:40",0.0,30.4,73.9,1000.3,344.1,0.8,1.4,346.9,0.00,25.3,29.2,"18:30:56",1
"17/08/17","18:50",0.0,29.9,77.0,1000.0,7.2,0.5,1.2,336.1,0.00,25.5,29.0,"18:40:24",1
"17/08/17","19:00",0.0,29.4,79.2,999.8,340.5,0.5,1.0,340.4,0.00,25.5,28.9,"18:55:20",1
"17/08/17","19:10",0.0,29.1,80.7,999.8,322.5,0.6,1.3,227.5,0.00,25.5,28.8,"19:03:20",1
"17/08/17","19:20",0.0,28.8,80.7,999.6,349.5,0.7,1.7,358.4,0.00,25.2,28.9,"19:16:16",1
"17/08/17","19:30",0.0,28.6,81.4,999.8,290.6,0.2,1.1,355.8,0.00,25.1,28.8,"19:22:24",1
"17/08/17","19:40",0.0,28.4,82.5,1000.5,354.6,0.8,1.7,339.4,0.00,25.2,28.6,"19:36:16",1
"17/08/17","19:50",0.0,28.3,82.3,1001.0,349.1,1.0,2.0,345.5,0.00,25.0,28.6,"19:48:16",1
"17/08/17","20:00",0.0,28.2,82.3,1001.0,337.6,0.8,1.8,340.2,0.00,24.9,28.5,"19:54:00",1
"17/08/17","20:10",0.0,28.0,82.6,1001.5,342.1,0.8,1.9,343.6,0.00,24.8,28.2,"20:08:32",1
"17/08/17","20:20",0.0,27.9,82.9,1001.9,350.0,1.0,1.9,351.9,0.00,24.8,28.4,"20:14:24",1
"17/08/17","20:30",0.0,27.9,82.4,1001.9,322.9,1.0,2.6,316.5,0.00,24.7,28.1,"20:25:52",1
"17/08/17","20:40",0.0,27.9,82.3,1001.9,353.9,0.5,1.8,339.6,0.00,24.6,28.1,"20:32:48",1
"17/08/17","20:50",0.0,27.7,82.7,1001.9,194.6,0.5,2.4,213.6,0.00,24.5,28.0,"20:49:28",1
"17/08/17","21:00",0.0,27.8,82.1,1001.9,240.7,1.2,2.5,212.7,0.00,24.5,28.1,"20:54:08",1
"17/08/17","21:10",0.0,27.6,83.3,1001.9,337.3,1.1,2.6,353.2,0.00,24.6,27.9,"21:03:20",1
"17/08/17","21:20",0.0,27.1,84.7,1001.9,306.0,0.5,1.2,276.3,0.00,24.3,28.1,"21:12:40",1
"17/08/17","21:30",0.0,26.8,85.9,1002.2,355.8,0.3,0.9,115.1,0.00,24.3,27.8,"21:24:24",1
"17/08/17","21:40",0.0,26.6,87.0,1002.4,291.9,0.6,1.1,336.2,0.00,24.3,27.8,"21:38:00",1
"17/08/17","21:50",0.0,26.7,87.4,1002.4,272.2,0.6,1.4,255.1,0.00,24.5,27.9,"21:46:56",1
"17/08/17","22:00",0.0,26.7,87.1,1002.6,329.4,1.1,2.0,341.5,0.00,24.4,27.7,"21:59:04",1
"17/08/17","22:10",0.0,26.8,86.9,1002.2,315.0,0.7,1.9,342.9,0.00,24.5,27.6,"22:00:08",1
"17/08/17","22:20",0.0,26.7,86.9,1002.2,306.7,0.3,0.9,298.5,0.00,24.4,27.6,"22:13:12",1
"17/08/17","22:30",0.0,26.8,87.1,1002.2,271.7,0.3,1.4,342.5,0.00,24.5,27.5,"22:20:08",1
"17/08/17","22:40",0.0,26.6,87.3,1002.4,294.9,0.5,0.8,344.8,0.00,24.4,27.4,"22:35:20",1
"17/08/17","22:50",0.0,26.4,87.7,1002.6,321.7,0.5,1.2,304.6,0.00,24.2,27.4,"22:49:12",1
"17/08/17","23:00",0.0,26.3,87.8,1002.4,285.6,0.7,1.3,263.1,0.00,24.2,27.3,"22:55:44",1
"17/08/17","23:10",0.0,26.4,87.8,1002.4,297.3,0.7,1.4,344.0,0.00,24.3,27.3,"23:03:12",1
"17/08/17","23:20",0.0,26.3,87.6,1002.6,299.8,0.6,1.2,321.3,0.00,24.1,27.3,"23:13:44",1
"17/08/17","23:30",0.0,26.3,88.0,1002.2,330.8,1.0,1.6,350.6,0.00,24.2,27.4,"23:26:32",1
"17/08/17","23:40",0.0,26.3,88.2,1002.4,317.5,0.6,1.8,333.0,0.00,24.2,27.2,"23:34:00",1
"17/08/17","23:50",0.0,26.3,88.5,1002.2,224.7,0.2,0.8,167.2,0.00,24.3,27.1,"23:40:08",1
"17/08/17","24:00",0.0,26.3,88.2,1001.9,232.2,0.5,1.6,232.4,0.00,24.2,27.2,"23:52:48",1
